Epoch 2005 Aug. 18.0 TT = JDT 2453600.5
T 2005 Aug. 17.52103 TT MPCW
q 2.8295406 (2000.0) P Q
n 0.06956035 Peri. 285.33312 -0.49226806 +0.87032064
a 5.8554669 Node 315.16747 -0.79044283 -0.45400179
e 0.5167694 Incl. 1.18932 -0.36451653 -0.19085168
P 14.17
From 203 observations 2005 Apr. 2-2018 Dec. 6, mean residual 0".5.